Regional Weather Roundup
Issued by NWS Albany, NY

Home | Current Version | Previous Version | Text Only | Print | Product List | Glossary On
Versions: 1 2 3 4 5 6 7 8 9 10 11 12 13 14 15 16 17 18 19 20 21 22 23 24 25 26 27 28 29 30 31 32 33 34 35 36 37 38 39 40 41 42 43 44 45 46 47 48 49 50
000
ASUS41 KALY 271910
RWRALY

NEW YORK STATE HOURLY WEATHER ROUNDUP
NATIONAL WEATHER SERVICE ALBANY NY
300 PM EDT THU APR 27 2017

NOTE: "FAIR" INDICATES FEW OR NO CLOUDS BELOW 12,000 FEET WITH NO
SIGNIFICANT WEATHER AND/OR NO OBSTRUCTIONS TO VISIBILITY.

NYZ032-033-038>043-046>054-057>066-NYZ062>081-082-084-272000-
EAST


CITY           SKY/WX    TMP DP  RH WIND       PRES   REMARKS
ALBANY         PTSUNNY   71  56  58 SE9       29.85F
GLENS FALLS    MOSUNNY   73  58  59 VRB5      29.83F
POUGHKEEPSIE   CLOUDY    68  58  70 VRB3      29.85F
NEWBURGH       CLOUDY    66  61  82 SE14      29.88F
MONTGOMERY     CLOUDY    69  59  70 SW7       29.85F
WHITE PLAINS   CLOUDY    67  57  70 SE9       29.89F
ISLIP          CLOUDY    64  57  78 S10       29.91F
NEW YORK CITY  CLOUDY    68  57  68 S9        29.89F
CENTRAL PARK   MOSUNNY   68  57  68 MISG      29.92S
$$

NYZ005>009-017-018-044>046-055-056-272000-
CENTRAL


CITY           SKY/WX    TMP DP  RH WIND       PRES   REMARKS
FULTON         MOSUNNY   80  59  48 SE9G18    29.67F
SYRACUSE       PTSUNNY   80  61  52 SE16G22   29.67F
ROME           PTSUNNY   79  60  52 SE15      29.73F
ELMIRA         CLOUDY    77  58  51 S13G20    29.71F
BINGHAMTON     CLOUDY    72  59  63 S10       29.77F
MONTICELLO     CLOUDY    66  61  82 SE12      29.88F
$$

NYZ026>034-041>043-087-272000-
NORTH


CITY           SKY/WX    TMP DP  RH WIND       PRES   REMARKS
WATERTOWN      CLOUDY    84  57  39 S8        29.65F
FORT DRUM      NOT AVBL
OGDENSBURG     FAIR      83  60  45 NE7       29.69F
MASSENA        SUNNY     77  59  53 NE15      29.73F
SARANAC LAKE   SUNNY     78  55  44 SW9       29.77F
PLATTSBURGH    SUNNY     74  55  51 SE21      29.78F
$$

NYZ001>004-010>016-019>021-085-272000-
WEST


CITY           SKY/WX    TMP DP  RH WIND       PRES   REMARKS
NIAGARA FALLS  MOSUNNY   86  59  39 W10       29.57S
BUFFALO        PTSUNNY   84  54  35 S18G25    29.57F
DUNKIRK        PTSUNNY   76  57  51 NW10      29.57S
JAMESTOWN      MOSUNNY   81  54  39 S12       29.64F
WELLSVILLE     CLOUDY    71  57  61 SE8G21    29.72F
ROCHESTER      PTSUNNY   84  62  47 SE17      29.61F
PENN YAN       CLOUDY    77  60  55 SE13G24   29.68F
$$

             KEY
       WCI = WIND CHILL INDEX
       VSB = VISIBILITY
       HX  = HEAT INDEX
$$



USA.gov is the U.S. government's official web portal to all federal, state and local government web resources and services.